Time,TemperatureF,DewpointF,PressureIn,WindDirection,WindDirectionDegrees,WindSpeedMPH,WindSpeedGustMPH,Humidity,HourlyPrecipIn,Conditions,Clouds,dailyrainin,SoftwareType,DateUTC
2013-11-29 00:02:00,25.7,18.2,30.42,WNW,296,0.0,-999.0,73,0.00,,,0.00,Wunderground v.1.15,2013-11-29 05:02:00,
2013-11-29 00:04:00,25.7,18.2,30.42,WNW,296,0.0,-999.0,73,0.00,,,0.00,Wunderground v.1.15,2013-11-29 05:04:00,
2013-11-29 00:06:00,25.7,18.2,30.42,WNW,296,0.0,-999.0,73,0.00,,,0.00,Wunderground v.1.15,2013-11-29 05:06:00,
2013-11-29 00:08:00,25.7,17.9,30.42,WNW,296,0.0,-999.0,72,0.00,,,0.00,Wunderground v.1.15,2013-11-29 05:08:00,
2013-11-29 00:12:00,25.7,17.9,30.42,WNW,296,0.0,-999.0,72,0.00,,,0.00,Wunderground v.1.15,2013-11-29 05:12:00,
2013-11-29 00:18:00,25.7,18.6,30.42,WNW,296,0.0,-999.0,74,0.00,,,0.00,Wunderground v.1.15,2013-11-29 05:18:00,
2013-11-29 00:24:00,25.7,18.6,30.42,WNW,296,0.0,-999.0,74,0.00,,,0.00,Wunderground v.1.15,2013-11-29 05:24:00,
2013-11-29 00:30:00,25.6,18.5,30.42,WNW,296,0.0,-999.0,74,0.00,,,0.00,Wunderground v.1.15,2013-11-29 05:30:00,
2013-11-29 00:36:00,25.7,18.6,30.42,WNW,296,0.0,-999.0,74,0.00,,,0.00,Wunderground v.1.15,2013-11-29 05:36:00,
2013-11-29 00:42:00,25.7,18.6,30.42,WNW,296,0.0,-999.0,74,0.00,,,0.00,Wunderground v.1.15,2013-11-29 05:42:00,
2013-11-29 00:48:00,25.8,18.7,30.42,WNW,296,0.0,-999.0,74,0.00,,,0.00,Wunderground v.1.15,2013-11-29 05:48:00,
2013-11-29 00:54:00,25.8,18.7,30.42,WNW,296,0.0,-999.0,74,0.00,,,0.00,Wunderground v.1.15,2013-11-29 05:54:00,
2013-11-29 01:02:00,25.9,18.4,30.42,WNW,296,0.0,-999.0,73,0.00,,,0.00,Wunderground v.1.15,2013-11-29 06:02:00,
2013-11-29 01:08:00,26.0,18.2,30.42,WNW,296,0.0,-999.0,72,0.00,,,0.00,Wunderground v.1.15,2013-11-29 06:08:00,
2013-11-29 01:14:00,26.0,18.5,30.42,WNW,296,0.0,-999.0,73,0.00,,,0.00,Wunderground v.1.15,2013-11-29 06:14:00,
2013-11-29 01:20:00,26.1,18.6,30.42,WNW,296,0.0,-999.0,73,0.00,,,0.00,Wunderground v.1.15,2013-11-29 06:20:00,
2013-11-29 01:26:00,26.1,18.3,30.42,WNW,296,0.0,-999.0,72,0.00,,,0.00,Wunderground v.1.15,2013-11-29 06:26:00,
2013-11-29 01:32:00,26.1,17.6,30.42,WNW,296,0.0,-999.0,70,0.00,,,0.00,Wunderground v.1.15,2013-11-29 06:32:00,
2013-11-29 01:38:00,26.3,17.8,30.42,WNW,296,0.0,-999.0,70,0.00,,,0.00,Wunderground v.1.15,2013-11-29 06:38:00,
2013-11-29 01:44:00,26.3,18.2,30.42,WNW,296,0.0,-999.0,71,0.00,,,0.00,Wunderground v.1.15,2013-11-29 06:44:00,
2013-11-29 01:50:00,26.3,18.2,30.42,WNW,296,0.0,-999.0,71,0.00,,,0.00,Wunderground v.1.15,2013-11-29 06:50:00,
2013-11-29 01:58:00,26.2,18.1,30.43,WNW,296,0.0,-999.0,71,0.00,,,0.00,Wunderground v.1.15,2013-11-29 06:58:00,
2013-11-29 02:04:00,26.3,18.2,30.43,WNW,296,0.0,-999.0,71,0.00,,,0.00,Wunderground v.1.15,2013-11-29 07:04:00,
2013-11-29 02:11:00,26.3,18.2,30.42,WNW,296,0.0,-999.0,71,0.00,,,0.00,Wunderground v.1.15,2013-11-29 07:11:00,
2013-11-29 02:16:00,26.3,18.5,30.43,WNW,296,0.0,-999.0,72,0.00,,,0.00,Wunderground v.1.15,2013-11-29 07:16:00,
2013-11-29 02:22:00,26.3,19.1,30.42,WNW,296,0.0,-999.0,74,0.00,,,0.00,Wunderground v.1.15,2013-11-29 07:22:00,
2013-11-29 02:28:00,26.2,19.7,30.43,WNW,296,0.0,-999.0,76,0.00,,,0.00,Wunderground v.1.15,2013-11-29 07:28:00,
2013-11-29 02:34:00,26.2,19.7,30.43,WNW,296,0.0,-999.0,76,0.00,,,0.00,Wunderground v.1.15,2013-11-29 07:34:00,
2013-11-29 02:42:00,26.1,18.9,30.43,WNW,296,0.0,-999.0,74,0.00,,,0.00,Wunderground v.1.15,2013-11-29 07:42:00,
2013-11-29 02:48:00,26.1,18.6,30.43,WNW,296,0.0,-999.0,73,0.00,,,0.00,Wunderground v.1.15,2013-11-29 07:48:00,
2013-11-29 02:54:00,26.1,18.3,30.42,WNW,296,0.0,-999.0,72,0.00,,,0.00,Wunderground v.1.15,2013-11-29 07:54:00,
2013-11-29 03:01:00,26.1,18.9,30.43,WNW,296,0.0,-999.0,74,0.00,,,0.00,Wunderground v.1.15,2013-11-29 08:01:00,
2013-11-29 03:08:00,26.1,19.3,30.43,WNW,296,0.0,-999.0,75,0.00,,,0.00,Wunderground v.1.15,2013-11-29 08:08:00,
2013-11-29 03:14:00,26.0,19.2,30.43,WNW,296,0.0,-999.0,75,0.00,,,0.00,Wunderground v.1.15,2013-11-29 08:14:00,
2013-11-29 03:20:00,26.0,18.8,30.43,WNW,296,0.0,-999.0,74,0.00,,,0.00,Wunderground v.1.15,2013-11-29 08:20:00,
2013-11-29 03:26:00,25.9,19.1,30.43,WNW,296,0.0,-999.0,75,0.00,,,0.00,Wunderground v.1.15,2013-11-29 08:26:00,
2013-11-29 03:32:00,25.9,19.4,30.43,WNW,296,0.0,-999.0,76,0.00,,,0.00,Wunderground v.1.15,2013-11-29 08:32:00,
2013-11-29 03:38:00,25.9,18.7,30.43,WNW,296,0.0,-999.0,74,0.00,,,0.00,Wunderground v.1.15,2013-11-29 08:38:00,
2013-11-29 03:44:00,25.9,19.1,30.43,WNW,296,0.0,-999.0,75,0.00,,,0.00,Wunderground v.1.15,2013-11-29 08:44:00,
2013-11-29 03:50:00,25.9,19.4,30.43,WNW,296,0.0,-999.0,76,0.00,,,0.00,Wunderground v.1.15,2013-11-29 08:50:00,
2013-11-29 03:58:00,26.0,19.2,30.43,WNW,296,0.0,-999.0,75,0.00,,,0.00,Wunderground v.1.15,2013-11-29 08:58:00,
2013-11-29 04:04:00,26.0,19.2,30.43,WNW,296,0.0,-999.0,75,0.00,,,0.00,Wunderground v.1.15,2013-11-29 09:04:00,
2013-11-29 04:10:00,26.0,18.8,30.43,WNW,296,0.0,-999.0,74,0.00,,,0.00,Wunderground v.1.15,2013-11-29 09:10:00,
2013-11-29 04:16:00,26.0,19.5,30.43,WNW,296,0.0,-999.0,76,0.00,,,0.00,Wunderground v.1.15,2013-11-29 09:16:00,
2013-11-29 04:22:00,26.0,19.8,30.43,WNW,296,0.0,-999.0,77,0.00,,,0.00,Wunderground v.1.15,2013-11-29 09:22:00,
2013-11-29 04:28:00,26.0,20.1,30.43,WNW,296,0.0,-999.0,78,0.00,,,0.00,Wunderground v.1.15,2013-11-29 09:28:00,
2013-11-29 04:34:00,25.9,19.4,30.43,WNW,296,0.0,-999.0,76,0.00,,,0.00,Wunderground v.1.15,2013-11-29 09:34:00,
2013-11-29 04:42:00,25.9,19.4,30.43,WNW,296,0.0,-999.0,76,0.00,,,0.00,Wunderground v.1.15,2013-11-29 09:42:00,
2013-11-29 04:48:00,25.9,19.7,30.43,WNW,296,0.0,-999.0,77,0.00,,,0.00,Wunderground v.1.15,2013-11-29 09:48:00,
2013-11-29 04:54:00,25.9,19.7,30.44,WNW,296,0.0,-999.0,77,0.00,,,0.00,Wunderground v.1.15,2013-11-29 09:54:00,
2013-11-29 05:00:00,25.8,19.9,30.44,WNW,296,0.0,-999.0,78,0.00,,,0.00,Wunderground v.1.15,2013-11-29 10:00:00,
2013-11-29 05:08:00,25.8,19.6,30.44,WNW,296,0.0,-999.0,77,0.00,,,0.00,Wunderground v.1.15,2013-11-29 10:08:00,
2013-11-29 05:14:00,25.9,20.0,30.44,WNW,296,0.0,-999.0,78,0.00,,,0.00,Wunderground v.1.15,2013-11-29 10:14:00,
2013-11-29 05:22:00,25.9,20.3,30.44,WNW,296,0.0,-999.0,79,0.00,,,0.00,Wunderground v.1.15,2013-11-29 10:22:00,
2013-11-29 05:28:00,25.8,19.9,30.44,WNW,296,0.0,-999.0,78,0.00,,,0.00,Wunderground v.1.15,2013-11-29 10:28:00,
2013-11-29 05:34:00,25.7,19.5,30.44,WNW,296,0.0,-999.0,77,0.00,,,0.00,Wunderground v.1.15,2013-11-29 10:34:00,
2013-11-29 05:42:00,25.7,19.8,30.44,WNW,296,0.0,-999.0,78,0.00,,,0.00,Wunderground v.1.15,2013-11-29 10:42:00,
2013-11-29 05:48:00,25.7,19.5,30.45,WNW,296,0.0,-999.0,77,0.00,,,0.00,Wunderground v.1.15,2013-11-29 10:48:00,
2013-11-29 05:54:00,25.6,19.7,30.45,WNW,296,0.0,-999.0,78,0.00,,,0.00,Wunderground v.1.15,2013-11-29 10:54:00,
2013-11-29 06:00:00,25.6,19.7,30.45,WNW,296,0.0,-999.0,78,0.00,,,0.00,Wunderground v.1.15,2013-11-29 11:00:00,
2013-11-29 06:08:00,25.5,19.3,30.46,WNW,296,0.0,-999.0,77,0.00,,,0.00,Wunderground v.1.15,2013-11-29 11:08:00,
2013-11-29 06:14:00,25.4,19.2,30.46,WNW,296,0.0,-999.0,77,0.00,,,0.00,Wunderground v.1.15,2013-11-29 11:14:00,
2013-11-29 06:20:00,25.5,19.0,30.46,WNW,296,0.0,-999.0,76,0.00,,,0.00,Wunderground v.1.15,2013-11-29 11:20:00,
2013-11-29 06:26:00,25.4,19.8,30.47,WNW,296,0.0,-999.0,79,0.00,,,0.00,Wunderground v.1.15,2013-11-29 11:26:00,
2013-11-29 06:32:00,25.3,19.7,30.47,WNW,296,0.0,-999.0,79,0.00,,,0.00,Wunderground v.1.15,2013-11-29 11:32:00,
2013-11-29 06:38:00,25.2,19.9,30.47,WNW,296,0.0,-999.0,80,0.00,,,0.00,Wunderground v.1.15,2013-11-29 11:38:00,
2013-11-29 06:44:00,25.1,20.1,30.48,WNW,296,0.0,-999.0,81,0.00,,,0.00,Wunderground v.1.15,2013-11-29 11:44:00,
2013-11-29 07:44:00,24.2,19.8,30.50,WNW,296,0.0,-999.0,83,0.00,,,0.00,Wunderground v.1.15,2013-11-29 12:44:00,
2013-11-29 07:54:00,24.3,20.2,30.51,WNW,296,0.0,-999.0,84,0.00,,,0.00,Wunderground v.1.15,2013-11-29 12:54:00,
2013-11-29 08:01:00,24.4,20.3,30.51,WNW,296,0.0,-999.0,84,0.00,,,0.00,Wunderground v.1.15,2013-11-29 13:01:00,
2013-11-29 08:11:00,24.5,20.4,30.51,WNW,296,0.0,-999.0,84,0.00,,,0.00,Wunderground v.1.15,2013-11-29 13:11:00,
2013-11-29 08:16:00,24.5,20.4,30.51,WNW,296,0.0,-999.0,84,0.00,,,0.00,Wunderground v.1.15,2013-11-29 13:16:00,
2013-11-29 08:22:00,24.6,20.5,30.51,WNW,296,0.0,-999.0,84,0.00,,,0.00,Wunderground v.1.15,2013-11-29 13:22:00,
2013-11-29 08:28:00,24.7,20.6,30.51,WNW,296,0.0,-999.0,84,0.00,,,0.00,Wunderground v.1.15,2013-11-29 13:28:00,
2013-11-29 08:34:00,24.9,20.8,30.52,WNW,296,0.0,-999.0,84,0.00,,,0.00,Wunderground v.1.15,2013-11-29 13:34:00,
2013-11-29 08:40:00,25.4,21.2,30.52,WNW,296,0.0,-999.0,84,0.00,,,0.00,Wunderground v.1.15,2013-11-29 13:40:00,
2013-11-29 08:46:00,25.9,21.2,30.52,WNW,296,0.0,-999.0,82,0.00,,,0.00,Wunderground v.1.15,2013-11-29 13:46:00,
2013-11-29 08:52:00,26.4,21.7,30.52,WNW,296,0.0,-999.0,82,0.00,,,0.00,Wunderground v.1.15,2013-11-29 13:52:00,
2013-11-29 08:58:00,27.0,21.7,30.52,WNW,296,0.0,-999.0,80,0.00,,,0.00,Wunderground v.1.15,2013-11-29 13:58:00,
2013-11-29 09:04:00,27.7,22.0,30.52,West,277,0.0,-999.0,79,0.00,,,0.00,Wunderground v.1.15,2013-11-29 14:04:00,
2013-11-29 09:10:00,28.4,21.8,30.52,WNW,302,1.0,-999.0,76,0.00,,,0.00,Wunderground v.1.15,2013-11-29 14:10:00,
2013-11-29 09:16:00,28.8,21.9,30.53,NW,309,2.0,-999.0,75,0.00,,,0.00,Wunderground v.1.15,2013-11-29 14:16:00,
2013-11-29 09:22:00,29.0,21.7,30.53,NW,323,3.0,-999.0,74,0.00,,,0.00,Wunderground v.1.15,2013-11-29 14:22:00,
2013-11-29 09:28:00,29.3,22.4,30.53,NE,40,2.0,-999.0,75,0.00,,,0.00,Wunderground v.1.15,2013-11-29 14:28:00,
2013-11-29 09:34:00,29.4,22.1,30.53,NW,323,3.0,-999.0,74,0.00,,,0.00,Wunderground v.1.15,2013-11-29 14:34:00,
2013-11-29 09:41:00,29.7,22.1,30.53,NW,316,2.0,-999.0,73,0.00,,,0.00,Wunderground v.1.15,2013-11-29 14:41:00,
2013-11-29 09:48:00,29.8,22.2,30.53,West,275,3.0,-999.0,73,0.00,,,0.00,Wunderground v.1.15,2013-11-29 14:48:00,
2013-11-29 09:54:00,30.1,22.2,30.53,WNW,284,3.0,-999.0,72,0.00,,,0.00,Wunderground v.1.15,2013-11-29 14:54:00,
2013-11-29 10:00:00,30.4,22.4,30.53,NNW,329,2.0,-999.0,72,0.00,,,0.00,Wunderground v.1.15,2013-11-29 15:00:00,
2013-11-29 10:06:00,30.5,22.5,30.53,NNW,336,1.0,-999.0,72,0.00,,,0.00,Wunderground v.1.15,2013-11-29 15:06:00,
2013-11-29 10:12:00,30.4,22.4,30.53,WNW,296,2.0,-999.0,72,0.00,,,0.00,Wunderground v.1.15,2013-11-29 15:12:00,
2013-11-29 10:18:00,30.7,22.7,30.53,WNW,303,2.0,-999.0,72,0.00,,,0.00,Wunderground v.1.15,2013-11-29 15:18:00,
2013-11-29 10:24:00,30.8,22.5,30.53,NNW,336,1.0,-999.0,71,0.00,,,0.00,Wunderground v.1.15,2013-11-29 15:24:00,
2013-11-29 10:30:00,30.8,22.5,30.53,NW,314,1.0,-999.0,71,0.00,,,0.00,Wunderground v.1.15,2013-11-29 15:30:00,
2013-11-29 10:36:00,31.0,22.7,30.53,NW,318,1.0,-999.0,71,0.00,,,0.00,Wunderground v.1.15,2013-11-29 15:36:00,
2013-11-29 10:42:00,31.1,22.8,30.53,NW,319,1.0,-999.0,71,0.00,,,0.00,Wunderground v.1.15,2013-11-29 15:42:00,
2013-11-29 10:48:00,31.4,22.7,30.53,NW,326,1.0,-999.0,70,0.00,,,0.00,Wunderground v.1.15,2013-11-29 15:48:00,
2013-11-29 10:54:00,31.2,22.5,30.53,NW,325,2.0,-999.0,70,0.00,,,0.00,Wunderground v.1.15,2013-11-29 15:54:00,
2013-11-29 11:01:00,31.2,22.9,30.53,WNW,294,1.0,-999.0,71,0.00,,,0.00,Wunderground v.1.15,2013-11-29 16:01:00,
2013-11-29 11:06:00,31.0,22.7,30.53,WNW,294,1.0,-999.0,71,0.00,,,0.00,Wunderground v.1.15,2013-11-29 16:06:00,
2013-11-29 11:12:00,31.5,23.2,30.52,WNW,294,0.0,-999.0,71,0.00,,,0.00,Wunderground v.1.15,2013-11-29 16:12:00,
2013-11-29 11:18:00,31.9,23.2,30.52,WNW,294,0.0,-999.0,70,0.00,,,0.00,Wunderground v.1.15,2013-11-29 16:18:00,
2013-11-29 15:56:00,30.4,20.0,30.58,NW,317,1.0,-999.0,65,0.00,,,0.00,Wunderground v.1.15,2013-11-29 20:56:00,
2013-11-29 16:02:00,30.4,20.0,30.58,NW,317,1.0,-999.0,65,0.00,,,0.00,Wunderground v.1.15,2013-11-29 21:02:00,
2013-11-29 16:08:00,30.0,20.0,30.58,NW,321,0.0,-999.0,66,0.00,,,0.00,Wunderground v.1.15,2013-11-29 21:08:00,
2013-11-29 16:14:00,29.9,19.9,30.58,NW,321,0.0,-999.0,66,0.00,,,0.00,Wunderground v.1.15,2013-11-29 21:14:00,
2013-11-29 16:19:00,29.9,19.9,30.58,NW,321,0.0,-999.0,66,0.00,,,0.00,Wunderground v.1.15,2013-11-29 21:19:00,
2013-11-29 16:26:00,29.5,19.9,30.59,NW,321,0.0,-999.0,67,0.00,,,0.00,Wunderground v.1.15,2013-11-29 21:26:00,
2013-11-29 16:34:00,29.4,19.8,30.59,NW,321,0.0,-999.0,67,0.00,,,0.00,Wunderground v.1.15,2013-11-29 21:34:00,
2013-11-29 16:40:00,29.0,20.1,30.59,NW,321,0.0,-999.0,69,0.00,,,0.00,Wunderground v.1.15,2013-11-29 21:40:00,
2013-11-29 16:46:00,28.8,20.2,30.60,NW,321,0.0,-999.0,70,0.00,,,0.00,Wunderground v.1.15,2013-11-29 21:46:00,
2013-11-29 16:52:00,28.5,20.3,30.60,NW,321,0.0,-999.0,71,0.00,,,0.00,Wunderground v.1.15,2013-11-29 21:52:00,
2013-11-29 16:58:00,28.3,20.1,30.60,NW,321,0.0,-999.0,71,0.00,,,0.00,Wunderground v.1.15,2013-11-29 21:58:00,
2013-11-29 17:04:00,28.1,20.2,30.60,NW,321,0.0,-999.0,72,0.00,,,0.00,Wunderground v.1.15,2013-11-29 22:04:00,
2013-11-29 17:10:00,27.8,20.3,30.61,NW,321,0.0,-999.0,73,0.00,,,0.00,Wunderground v.1.15,2013-11-29 22:10:00,
2013-11-29 17:16:00,27.6,20.1,30.61,NW,321,0.0,-999.0,73,0.00,,,0.00,Wunderground v.1.15,2013-11-29 22:16:00,
2013-11-29 17:22:00,27.4,19.9,30.61,NW,321,0.0,-999.0,73,0.00,,,0.00,Wunderground v.1.15,2013-11-29 22:22:00,
2013-11-29 17:28:00,27.2,19.7,30.61,NW,321,0.0,-999.0,73,0.00,,,0.00,Wunderground v.1.15,2013-11-29 22:28:00,
2013-11-29 17:34:00,27.0,19.5,30.61,NW,321,0.0,-999.0,73,0.00,,,0.00,Wunderground v.1.15,2013-11-29 22:34:00,
2013-11-29 17:40:00,26.8,19.3,30.62,NW,321,0.0,-999.0,73,0.00,,,0.00,Wunderground v.1.15,2013-11-29 22:40:00,
2013-11-29 17:46:00,26.5,19.0,30.62,NW,322,0.0,-999.0,73,0.00,,,0.00,Wunderground v.1.15,2013-11-29 22:46:00,
2013-11-29 17:52:00,26.2,19.0,30.62,NW,321,0.0,-999.0,74,0.00,,,0.00,Wunderground v.1.15,2013-11-29 22:52:00,
2013-11-29 17:58:00,26.1,19.3,30.62,NW,321,0.0,-999.0,75,0.00,,,0.00,Wunderground v.1.15,2013-11-29 22:58:00,
2013-11-29 18:04:00,25.9,19.4,30.62,NW,322,0.0,-999.0,76,0.00,,,0.00,Wunderground v.1.15,2013-11-29 23:04:00,
2013-11-29 18:10:00,25.7,19.2,30.62,NW,321,0.0,-999.0,76,0.00,,,0.00,Wunderground v.1.15,2013-11-29 23:10:00,
2013-11-29 18:16:00,25.6,19.4,30.63,NW,321,0.0,-999.0,77,0.00,,,0.00,Wunderground v.1.15,2013-11-29 23:16:00,
2013-11-29 18:22:00,25.6,20.0,30.63,NW,321,0.0,-999.0,79,0.00,,,0.00,Wunderground v.1.15,2013-11-29 23:22:00,
2013-11-29 18:28:00,25.5,19.9,30.63,NW,321,0.0,-999.0,79,0.00,,,0.00,Wunderground v.1.15,2013-11-29 23:28:00,
2013-11-29 18:34:00,25.4,20.1,30.63,NW,321,0.0,-999.0,80,0.00,,,0.00,Wunderground v.1.15,2013-11-29 23:34:00,
2013-11-29 18:40:00,25.2,20.2,30.63,NW,321,0.0,-999.0,81,0.00,,,0.00,Wunderground v.1.15,2013-11-29 23:40:00,
2013-11-29 18:46:00,25.0,20.0,30.62,NW,321,0.0,-999.0,81,0.00,,,0.00,Wunderground v.1.15,2013-11-29 23:46:00,
2013-11-29 18:52:00,24.8,20.1,30.62,NW,321,0.0,-999.0,82,0.00,,,0.00,Wunderground v.1.15,2013-11-29 23:52:00,
2013-11-29 18:58:00,24.7,20.0,30.62,NW,321,0.0,-999.0,82,0.00,,,0.00,Wunderground v.1.15,2013-11-29 23:58:00,
2013-11-29 19:04:00,24.7,20.3,30.62,NW,321,1.0,-999.0,83,0.00,,,0.00,Wunderground v.1.15,2013-11-30 00:04:00,
2013-11-29 19:11:00,25.3,20.3,30.61,NW,325,1.0,-999.0,81,0.00,,,0.00,Wunderground v.1.15,2013-11-30 00:11:00,
2013-11-29 19:16:00,25.8,20.5,30.61,NNW,327,1.0,-999.0,80,0.00,,,0.00,Wunderground v.1.15,2013-11-30 00:16:00,
2013-11-29 19:22:00,26.1,20.5,30.62,East,88,1.0,-999.0,79,0.00,,,0.00,Wunderground v.1.15,2013-11-30 00:22:00,
2013-11-29 19:28:00,26.3,20.4,30.62,ENE,57,0.0,-999.0,78,0.00,,,0.00,Wunderground v.1.15,2013-11-30 00:28:00,
2013-11-29 19:34:00,26.7,20.1,30.63,ESE,116,0.0,-999.0,76,0.00,,,0.00,Wunderground v.1.15,2013-11-30 00:34:00,
2013-11-29 19:41:00,26.6,20.1,30.64,ESE,116,0.0,-999.0,76,0.00,,,0.00,Wunderground v.1.15,2013-11-30 00:41:00,
2013-11-29 19:46:00,26.5,20.0,30.64,ESE,116,0.0,-999.0,76,0.00,,,0.00,Wunderground v.1.15,2013-11-30 00:46:00,
2013-11-29 19:52:00,26.2,19.7,30.64,ESE,116,0.0,-999.0,76,0.00,,,0.00,Wunderground v.1.15,2013-11-30 00:52:00,
2013-11-29 19:58:00,26.0,19.8,30.65,ESE,116,0.0,-999.0,77,0.00,,,0.00,Wunderground v.1.15,2013-11-30 00:58:00,
2013-11-29 20:04:00,25.7,20.1,30.65,ESE,116,0.0,-999.0,79,0.00,,,0.00,Wunderground v.1.15,2013-11-30 01:04:00,
2013-11-29 20:10:00,25.4,19.8,30.65,ESE,116,0.0,-999.0,79,0.00,,,0.00,Wunderground v.1.15,2013-11-30 01:10:00,
2013-11-29 20:16:00,25.2,19.6,30.65,ESE,115,0.0,-999.0,79,0.00,,,0.00,Wunderground v.1.15,2013-11-30 01:16:00,
2013-11-29 20:22:00,24.9,19.6,30.66,ESE,115,0.0,-999.0,80,0.00,,,0.00,Wunderground v.1.15,2013-11-30 01:22:00,
2013-11-29 20:28:00,24.5,19.2,30.66,ESE,116,0.0,-999.0,80,0.00,,,0.00,Wunderground v.1.15,2013-11-30 01:28:00,
2013-11-29 20:34:00,24.2,18.9,30.66,ESE,115,0.0,-999.0,80,0.00,,,0.00,Wunderground v.1.15,2013-11-30 01:34:00,
2013-11-29 20:41:00,24.1,19.7,30.65,ESE,116,0.0,-999.0,83,0.00,,,0.00,Wunderground v.1.15,2013-11-30 01:41:00,
2013-11-29 20:46:00,23.9,19.5,30.66,ESE,116,0.0,-999.0,83,0.00,,,0.00,Wunderground v.1.15,2013-11-30 01:46:00,
2013-11-29 20:52:00,23.7,19.3,30.66,ESE,115,0.0,-999.0,83,0.00,,,0.00,Wunderground v.1.15,2013-11-30 01:52:00,
2013-11-29 20:58:00,23.7,19.6,30.65,ESE,116,0.0,-999.0,84,0.00,,,0.00,Wunderground v.1.15,2013-11-30 01:58:00,
2013-11-29 21:04:00,23.9,19.5,30.65,ESE,115,0.0,-999.0,83,0.00,,,0.00,Wunderground v.1.15,2013-11-30 02:04:00,
2013-11-29 21:10:00,24.4,19.4,30.65,West,277,0.0,-999.0,81,0.00,,,0.00,Wunderground v.1.15,2013-11-30 02:10:00,
2013-11-29 21:16:00,24.5,19.2,30.66,West,277,0.0,-999.0,80,0.00,,,0.00,Wunderground v.1.15,2013-11-30 02:16:00,
2013-11-29 21:22:00,24.5,19.2,30.66,West,277,0.0,-999.0,80,0.00,,,0.00,Wunderground v.1.15,2013-11-30 02:22:00,
2013-11-29 21:28:00,24.4,19.1,30.66,West,277,0.0,-999.0,80,0.00,,,0.00,Wunderground v.1.15,2013-11-30 02:28:00,
2013-11-29 21:34:00,24.3,18.7,30.66,West,277,0.0,-999.0,79,0.00,,,0.00,Wunderground v.1.15,2013-11-30 02:34:00,
2013-11-29 21:40:00,24.1,18.5,30.66,West,277,0.0,-999.0,79,0.00,,,0.00,Wunderground v.1.15,2013-11-30 02:40:00,
2013-11-29 21:46:00,23.9,18.6,30.66,West,277,0.0,-999.0,80,0.00,,,0.00,Wunderground v.1.15,2013-11-30 02:46:00,
2013-11-29 21:52:00,23.6,18.3,30.67,West,277,0.0,-999.0,80,0.00,,,0.00,Wunderground v.1.15,2013-11-30 02:52:00,
2013-11-29 21:58:00,23.3,18.3,30.67,West,277,0.0,-999.0,81,0.00,,,0.00,Wunderground v.1.15,2013-11-30 02:58:00,
2013-11-29 22:04:00,23.0,18.3,30.67,West,277,0.0,-999.0,82,0.00,,,0.00,Wunderground v.1.15,2013-11-30 03:04:00,
2013-11-29 22:10:00,22.8,18.1,30.67,West,277,0.0,-999.0,82,0.00,,,0.00,Wunderground v.1.15,2013-11-30 03:10:00,
2013-11-29 22:16:00,22.5,18.1,30.67,West,277,0.0,-999.0,83,0.00,,,0.00,Wunderground v.1.15,2013-11-30 03:16:00,
2013-11-29 22:22:00,22.5,18.4,30.67,West,277,0.0,-999.0,84,0.00,,,0.00,Wunderground v.1.15,2013-11-30 03:22:00,
2013-11-29 22:28:00,22.4,18.6,30.67,West,277,0.0,-999.0,85,0.00,,,0.00,Wunderground v.1.15,2013-11-30 03:28:00,
2013-11-29 22:34:00,22.2,18.4,30.68,West,277,0.0,-999.0,85,0.00,,,0.00,Wunderground v.1.15,2013-11-30 03:34:00,
2013-11-29 22:40:00,22.0,18.2,30.68,West,277,0.0,-999.0,85,0.00,,,0.00,Wunderground v.1.15,2013-11-30 03:40:00,
2013-11-29 22:46:00,21.8,18.3,30.68,West,277,0.0,-999.0,86,0.00,,,0.00,Wunderground v.1.15,2013-11-30 03:46:00,
2013-11-29 22:52:00,21.7,18.2,30.68,West,277,0.0,-999.0,86,0.00,,,0.00,Wunderground v.1.15,2013-11-30 03:52:00,
2013-11-29 22:58:00,21.5,18.0,30.68,West,277,0.0,-999.0,86,0.00,,,0.00,Wunderground v.1.15,2013-11-30 03:58:00,
2013-11-29 23:04:00,21.3,17.8,30.69,West,277,0.0,-999.0,86,0.00,,,0.00,Wunderground v.1.15,2013-11-30 04:04:00,
2013-11-29 23:10:00,21.2,17.7,30.69,West,277,0.0,-999.0,86,0.00,,,0.00,Wunderground v.1.15,2013-11-30 04:10:00,
2013-11-29 23:16:00,21.2,17.4,30.69,West,277,0.0,-999.0,85,0.00,,,0.00,Wunderground v.1.15,2013-11-30 04:16:00,
2013-11-29 23:22:00,21.2,17.4,30.69,West,277,0.0,-999.0,85,0.00,,,0.00,Wunderground v.1.15,2013-11-30 04:22:00,
2013-11-29 23:28:00,21.4,17.9,30.69,West,277,0.0,-999.0,86,0.00,,,0.00,Wunderground v.1.15,2013-11-30 04:28:00,
2013-11-29 23:34:00,21.4,17.9,30.69,West,277,0.0,-999.0,86,0.00,,,0.00,Wunderground v.1.15,2013-11-30 04:34:00,
2013-11-29 23:40:00,21.3,17.8,30.69,West,277,0.0,-999.0,86,0.00,,,0.00,Wunderground v.1.15,2013-11-30 04:40:00,
2013-11-29 23:46:00,21.2,17.7,30.69,West,277,0.0,-999.0,86,0.00,,,0.00,Wunderground v.1.15,2013-11-30 04:46:00,
2013-11-29 23:52:00,21.2,17.9,30.68,West,277,0.0,-999.0,87,0.00,,,0.00,Wunderground v.1.15,2013-11-30 04:52:00,
2013-11-29 23:58:00,20.9,17.4,30.69,West,277,0.0,-999.0,86,0.00,,,0.00,Wunderground v.1.15,2013-11-30 04:58:00,